Weather History for Milwaukee Timmerman, WI

Change the Weather History Date:

Wednesday, March 12, 2014

  Actual Average Record
Temperature  
Mean Temperature 23 °F -  
Max Temperature 32 °F 43 °F 76 °F (1990)
Min Temperature 14 °F 26 °F 8 °F (1969)
Degree Days  
Heating Degree Days 42    
Moisture  
Dew Point 12 °F    
Average Humidity 59    
Maximum Humidity 80    
Minimum Humidity 36    
Precipitation  
Precipitation 0.00 in - - ()
Sea Level Pressure  
Sea Level Pressure 29.93 in    
Wind  
Wind Speed 15 mph (NNE)    
Max Wind Speed 23 mph    
Max Gust Speed 33 mph    
Visibility 10 miles    
Events      
Averages and records for this station are not official NWS values.
T = Trace of Precipitation, MM = Missing Value Source: NWS Daily Summary

Daily Weather History Graph

Daily Weather History Graph

Search for Another Location

Airport:

Trip Planner

Search our weather history database for the weather conditions in past years. The results will help you decide how hot, cold, wet, or windy it might be!

Date:

Astronomy

Mar. 12, 2014 Rise Set
Actual Time 7:09 AM CDT 6:54 PM CDT
Civil Twilight 6:41 AM CDT 7:23 PM CDT
Nautical Twilight 6:08 AM CDT 7:56 PM CDT
Astronomical Twilight 5:34 AM CDT 8:29 PM CDT
Moon 3:20 PM CDT (3/12) 4:45 AM CDT (3/12)
Length of Visible Light 12h 42m
Length of Day
11h 45m
Waxing Gibbous, 85% of the Moon is Illuminated
Mar 12
Waxing Gibbous
Mar 16
Full
Mar 23
Last Quarter
Mar 30
New
Apr 7
First Quarter

Hourly Weather History & Observations

Time (CDT) Temp. Windchill Dew Point Humidity Pressure Visibility Wind Dir Wind Speed Gust Speed Precip Events Conditions
12:15 AM 32.0 °F 21.2 °F 26.6 °F 80% 29.81 in 10.0 mi NE 16.1 mph 25.3 mph N/A   Overcast
12:35 AM 32.0 °F 19.8 °F 24.8 °F 75% 29.79 in 10.0 mi NE 20.7 mph 29.9 mph N/A   Overcast
12:55 AM 32.0 °F 20.1 °F 23.0 °F 69% 29.79 in 10.0 mi NE 19.6 mph 33.4 mph N/A   Overcast
1:15 AM 32.0 °F 20.1 °F 23.0 °F 69% 29.79 in 10.0 mi NNE 19.6 mph 28.8 mph N/A   Overcast
1:35 AM 32.0 °F 20.8 °F 23.0 °F 69% 29.80 in 10.0 mi NNE 17.3 mph 26.5 mph N/A   Overcast
1:55 AM 32.0 °F 19.8 °F 23.0 °F 69% 29.80 in 10.0 mi NNE 20.7 mph 27.6 mph N/A   Overcast
2:15 AM 32.0 °F 21.6 °F 21.2 °F 64% 29.81 in 10.0 mi NE 15.0 mph 27.6 mph N/A   Overcast
2:35 AM 32.0 °F 20.8 °F 21.2 °F 64% 29.79 in 10.0 mi NNE 17.3 mph 29.9 mph N/A   Overcast
2:55 AM 32.0 °F 22.1 °F 21.2 °F 64% 29.80 in 10.0 mi NNE 13.8 mph 23.0 mph N/A   Overcast
3:15 AM 30.2 °F 18.9 °F 19.4 °F 64% 29.80 in 10.0 mi NNE 16.1 mph 26.5 mph N/A   Overcast
3:35 AM 30.2 °F 17.4 °F 19.4 °F 64% 29.79 in 10.0 mi NNE 20.7 mph 28.8 mph N/A   Overcast
3:55 AM 30.2 °F 17.8 °F 19.4 °F 64% 29.79 in 10.0 mi NNE 19.6 mph 31.1 mph N/A   Overcast
4:15 AM 30.2 °F 18.5 °F 21.2 °F 69% 29.80 in 10.0 mi NNE 17.3 mph 25.3 mph N/A   Overcast
4:35 AM 30.2 °F 19.8 °F 21.2 °F 69% 29.82 in 10.0 mi NNE 13.8 mph 21.9 mph N/A   Overcast
4:55 AM 30.2 °F 16.8 °F 19.4 °F 64% 29.82 in 10.0 mi North 23.0 mph 27.6 mph N/A   Overcast
5:15 AM 30.2 °F 20.8 °F 19.4 °F 64% 29.83 in 10.0 mi NNE 11.5 mph 26.5 mph N/A   Overcast
5:35 AM 28.4 °F 15.8 °F 19.4 °F 69% 29.84 in 10.0 mi NNE 18.4 mph 25.3 mph N/A   Overcast
5:55 AM 28.4 °F 17.5 °F 19.4 °F 69% 29.85 in 10.0 mi NNE 13.8 mph 27.6 mph N/A   Overcast
6:15 AM 28.4 °F 16.2 °F 19.4 °F 69% 29.85 in 10.0 mi North 17.3 mph 24.2 mph N/A   Overcast
6:35 AM 28.4 °F 14.7 °F 19.4 °F 69% 29.85 in 10.0 mi NNE 21.9 mph 32.2 mph N/A   Overcast
6:45 AM 26.6 °F 13.4 °F 17.6 °F 69% 29.84 in 10.0 mi NNE 18.4 mph 28.8 mph N/A   Overcast
7:45 AM 26.6 °F 14.3 °F 15.8 °F 64% 29.88 in 10.0 mi NNE 16.1 mph 25.3 mph N/A   Overcast
8:45 AM - - - N/A% 29.91 in 10.0 mi North 18.4 mph 24.2 mph N/A   Overcast
9:45 AM 23.0 °F 9.6 °F 12.2 °F 63% 29.93 in 10.0 mi NNE 16.1 mph 25.3 mph N/A   Mostly Cloudy
10:45 AM 21.2 °F 6.4 °F 8.6 °F 58% 29.95 in 10.0 mi North 18.4 mph 27.6 mph N/A   Clear
11:45 AM 21.2 °F 7.3 °F 3.2 °F 46% 29.98 in 10.0 mi NNE 16.1 mph 23.0 mph N/A   Clear
12:45 PM 23.0 °F 10.6 °F 3.2 °F 43% 29.99 in 10.0 mi North 13.8 mph 23.0 mph N/A   Clear
1:45 PM 23.0 °F 8.7 °F -0.4 °F 36% 30.00 in 10.0 mi North 18.4 mph 24.2 mph N/A   Clear
2:45 PM 23.0 °F 10.6 °F 1.4 °F 39% 30.00 in 10.0 mi North 13.8 mph 21.9 mph N/A   Clear
3:45 PM 23.0 °F 9.6 °F 1.4 °F 39% 30.02 in 10.0 mi North 16.1 mph 19.6 mph N/A   Clear
4:45 PM 21.2 °F 9.5 °F -2.2 °F 36% 30.04 in 10.0 mi North 11.5 mph 17.3 mph N/A   Clear
5:45 PM 21.2 °F 9.5 °F -0.4 °F 39% 30.06 in 10.0 mi North 11.5 mph 17.3 mph N/A   Clear
6:45 PM 19.4 °F 7.2 °F -0.4 °F 42% 30.08 in 10.0 mi North 11.5 mph - N/A   Clear
8:45 PM 17.6 °F 10.7 °F 1.4 °F 49% 30.10 in 10.0 mi NNE 4.6 mph - N/A   Clear
9:15 PM 17.6 °F 10.7 °F 1.4 °F 49% 30.10 in 10.0 mi NNE 4.6 mph - N/A   Clear
9:35 PM 17.6 °F 12.3 °F 1.4 °F 49% 30.11 in 10.0 mi North 3.5 mph - N/A   Clear
9:55 PM 17.6 °F 10.7 °F 1.4 °F 49% 30.11 in 10.0 mi North 4.6 mph - N/A   Clear
10:15 PM 17.6 °F 12.3 °F 1.4 °F 49% 30.11 in 10.0 mi North 3.5 mph - N/A   Clear
10:35 PM 14.0 °F - 5.0 °F 67% 30.11 in 10.0 mi Calm Calm - N/A   Clear
10:55 PM 15.8 °F 10.2 °F 3.2 °F 58% 30.11 in 10.0 mi West 3.5 mph - N/A   Clear
11:15 PM 15.8 °F 8.6 °F 5.0 °F 62% 30.11 in 10.0 mi WNW 4.6 mph - N/A   Clear
11:35 PM 15.8 °F - 3.2 °F 58% 30.11 in 10.0 mi Calm Calm - N/A   Clear
11:55 PM 14.0 °F - 3.2 °F 62% 30.11 in 10.0 mi Calm Calm - N/A   Clear